Location: Grand Lay
(47.3253°N, 0.9468°E)
Time: 17:27:38
(UTC+00:00)

GEOS 3 Rocket - Pass Details

Date: 18 January 2026
Orbit: 768 x 845 km, 115.0° (Epoch: 16 February)

Event Time Altitude Azimuth Distance (km) Brightness Sun altitude
Rises 06:32:40 0° 158° (SSE) 3,296 7.4 -10.7°
Reaches altitude 10° 06:35:02 10° 165° (SSE) 2,382 6.5 -10.3°
Maximum altitude 06:39:58 45° 238° (WSW) 1,109 4.1 -9.5°
Drops below altitude 10° 06:45:03 10° 310° (NW) 2,442 5.5 -8.7°
Enters shadow 06:45:19 - 311° (NW) 2,543 5.6 -8.7°
